Location: Ehingen
(48.2869°N, 9.7112°E)
Time: 19:53:44
(UTC+02:00)

ISS - Pass Details

Date: 23 March 2017
Orbit: 399 x 409 km, 51.6° (Epoch: 29 March)

Event Time Altitude Azimuth Distance (km) Brightness Sun altitude
Exits shadow 04:29:56 20° 169° (S) 996 -2.0 -18.3°
Drops below altitude 10° 04:31:21 10° 152° (SSE) 1,470 -0.9 -18.0°
Sets 04:33:34 0° 142° (SE) 2,327 0.2 -17.7°
